Simultaneous Nadir Overpasses (SNOs) Predictions

Prediction of SNOs between GOES-15 and METOP-A Satellite Orbit:

Table of predicted SNOs for the next 14.0 days since TLE Epoch: 10/5/2018
Index Date Time (GOES-15) GOES-15 Lat,Lon METOP-A Lat,Lon Distance(km) Time Diff (sec)
1 10/06/2018 18:23:18 -0.30,-135.68 -0.06,-136.86 134.64 80
2 10/07/2018 18:05:15 -0.28,-135.68 -1.12,-131.86 435.08 80
3 10/09/2018 06:24:13 0.30,-135.60 0.13,-136.46 97.13 80
4 10/10/2018 06:03:30 0.29,-135.60 1.19,-131.45 471.84 80
5 10/11/2018 18:19:39 -0.30,-135.66 -0.21,-136.03 41.78 80
6 10/14/2018 06:17:54 0.30,-135.58 0.28,-135.62 5.33 80
7 10/16/2018 18:18:41 -0.30,-135.61 -0.37,-135.19 47.88 80
8 10/18/2018 06:37:38 0.31,-135.54 -0.62,-139.79 484.20 80
9 10/19/2018 06:14:16 0.30,-135.52 0.44,-134.78 83.48 80




NCC Satellite Simultaneous Nadir Overpasses (SNOs) Prediction Service
